Location: Brachbach
(49.1847°N, 9.7240°E)
Time: 14:15:16
(UTC+00:00)

Nimbus 7 Rocket - Pass Details

Date: 17 August 2024
Orbit: 921 x 965 km, 99.4° (Epoch: 14 September)

Event Time Altitude Azimuth Distance (km) Brightness Sun altitude
Rises 00:00:10 0° 17° (NNE) 3,587 8.7 -27.0°
Reaches altitude 10° 00:02:39 10° 21° (NNE) 2,636 7.7 -26.9°
Maximum altitude 00:08:29 64° 103° (ESE) 1,018 4.5 -26.8°
Enters shadow 00:09:05 60° 134° (SE) 1,048 4.4 -26.7°
